Theta_e
324 325 325 325 325 324 324 324 324 324 324 324 324 324 324 324 324 323 323 323 323 322 322 322 323 323 323 323 324 324 324 319 317 319 317 316 332 338 350 354 350 359 368 349 344 338 336 336 336 340 339 338 338 336 340 336 336 335 321 314 310 316 318 323 322 324 329 328 331 333 335 331 329 338 341 347 343 343 344 343 347 349 348 351 350 354 353 353
324 324 324 324 324 324 323 323 323 323 323 323 323 324 324 323 323 323 323 322 322 322 322 322 322 323 323 323 324 325 322 319 317 317 315 330 341 343 348 354 357 364 356 335 338 336 333 333 336 338 336 333 343 331 335 327 334 321 320 314 311 316 323 329 330 331 331 330 333 335 335 333 331 338 341 336 336 337 337 341 344 342 345 350 350 350 349 349
323 323 323 323 323 323 323 322 322 322 322 322 323 323 323 323 323 322 322 322 322 322 322 322 322 322 323 323 324 325 321 318 318 314 316 344 342 344 347 361 358 363 332 328 330 332 334 334 336 337 336 334 332 327 333 326 329 322 318 312 314 324 328 333 334 333 336 335 334 333 336 335 336 338 343 334 334 336 332 334 338 338 339 344 348 348 348 347
323 323 323 323 323 322 322 322 322 322 322 322 322 322 323 322 322 322 322 322 322 322 322 322 322 323 323 324 325 322 319 319 304 311 320 348 349 345 348 358 363 357 332 331 331 331 334 334 333 329 325 333 331 328 323 324 322 320 318 314 320 328 325 331 334 335 336 338 334 334 336 334 337 339 340 335 332 333 334 338 336 337 340 344 346 345 346 345
322 322 322 322 322 322 322 322 322 322 321 322 322 322 322 322 322 322 322 322 322 323 322 322 322 323 324 325 324 321 317 296 303 317 328 359 357 350 350 357 365 346 331 327 325 322 322 319 320 323 325 318 327 324 320 324 325 322 319 322 327 328 325 330 332 336 337 338 335 333 333 332 340 340 338 336 328 327 334 340 343 342 343 345 343 344 346 344
322 322 322 322 322 322 321 321 321 321 321 321 321 321 321 321 321 322 321 322 322 323 322 322 323 324 325 325 322 318 303 292 310 315 364 362 360 353 353 361 365 343 334 328 324 323 322 323 322 323 320 318 318 317 318 323 325 315 322 324 327 326 326 330 333 335 336 334 333 332 335 337 335 334 338 337 332 333 341 344 345 345 346 348 346 345 344 344
321 321 321 321 321 321 320 320 320 320 321 321 320 321 320 320 321 321 321 322 323 323 322 322 323 324 324 325 319 318 306 303 310 314 358 362 357 354 359 363 361 337 330 321 322 321 322 321 326 322 323 322 320 318 321 321 324 321 316 323 324 328 327 330 331 333 332 332 332 336 339 334 334 328 337 335 339 340 343 347 347 347 349 347 343 344 343 343
320 320 320 320 320 320 320 319 320 320 320 320 320 320 320 320 321 321 321 322 323 323 322 323 323 324 324 319 318 309 308 306 310 322 361 359 354 357 360 352 337 330 326 321 321 320 322 320 320 327 322 320 317 318 322 321 323 321 319 322 325 328 329 332 332 334 336 334 337 336 333 332 334 332 336 333 338 342 344 347 346 347 346 345 343 343 343 343
319 319 319 319 319 319 319 319 319 320 320 319 320 319 319 319 320 321 322 323 324 323 322 323 324 324 324 318 312 300 300 315 319 331 352 346 349 347 341 335 335 327 323 322 322 322 322 319 322 325 317 315 319 319 320 318 316 321 321 324 326 327 330 331 331 333 335 337 336 332 330 333 335 337 332 335 339 342 346 345 345 345 344 343 343 344 343 342
319 319 319 319 319 319 319 319 319 319 319 319 319 319 318 319 320 321 322 323 324 323 322 324 324 324 319 318 308 295 306 314 322 344 342 344 343 336 327 329 329 319 316 320 321 321 319 320 324 328 327 320 319 319 319 318 313 324 323 325 327 328 330 332 329 331 334 335 336 329 328 329 335 332 321 337 340 343 346 344 344 343 342 344 344 345 344 343
319 319 319 318 318 318 319 319 319 319 319 319 319 318 318 319 320 321 322 323 324 324 323 324 324 323 319 319 302 296 312 328 335 339 339 341 333 327 322 326 324 317 316 320 321 323 323 323 325 327 324 313 318 317 320 320 323 321 320 326 328 329 331 330 330 329 329 330 334 330 328 331 334 333 324 335 341 344 342 343 343 342 342 343 345 345 346 345
319 319 318 318 318 318 318 319 319 319 319 318 318 318 318 319 320 321 322 324 324 324 324 323 324 321 318 316 306 302 323 330 332 332 336 333 325 324 322 324 322 318 318 318 321 324 325 325 326 324 313 319 311 317 318 324 324 320 321 316 319 324 324 327 326 329 332 327 335 335 326 325 328 325 331 337 341 342 341 341 342 342 342 343 344 345 344 345
319 318 318 318 317 317 318 318 318 318 318 317 318 318 318 319 320 322 323 324 325 324 325 324 322 321 318 303 313 319 320 321 329 330 331 329 325 323 319 320 322 320 320 319 320 324 325 325 326 319 321 319 316 310 319 323 323 321 319 317 313 316 316 325 332 330 329 330 336 330 307 309 321 328 333 339 339 340 338 338 340 340 340 341 343 343 344 345
318 318 317 317 317 317 318 318 318 318 318 317 317 318 318 319 321 322 324 325 326 325 325 325 322 319 319 309 318 324 325 321 320 326 328 330 325 323 320 318 321 321 323 322 322 321 322 323 323 321 322 318 314 320 316 319 322 315 324 313 307 307 305 322 327 329 325 333 335 327 308 310 319 329 333 338 340 338 335 336 338 338 339 340 342 343 343 344
318 317 317 317 317 317 317 317 317 317 317 317 317 318 318 319 321 323 325 326 325 325 325 325 321 318 315 316 324 327 350 334 317 318 328 328 324 318 318 317 317 321 322 322 321 322 324 324 322 318 312 321 324 313 307 313 319 327 307 301 309 304 307 322 328 328 322 329 333 323 309 312 321 328 332 337 338 338 335 336 337 338 338 340 341 342 342 344
317 317 317 316 317 317 317 317 317 317 317 316 316 317 318 319 322 324 326 325 325 324 322 320 319 320 313 306 316 339 323 316 318 322 324 330 325 317 318 315 317 317 319 321 324 324 323 324 316 314 315 315 312 304 305 307 307 311 307 304 304 306 308 317 324 328 326 328 330 323 309 317 319 326 331 334 335 336 334 335 336 337 339 340 341 342 342 343
317 317 317 316 316 317 317 317 317 317 317 316 317 317 318 320 323 326 327 326 324 323 321 319 319 322 304 317 326 318 315 316 320 318 322 330 326 320 316 314 314 315 317 320 322 322 323 321 316 316 315 311 309 306 301 301 303 305 310 304 304 305 306 309 318 325 327 323 319 325 315 317 320 326 329 330 334 333 332 333 336 337 338 340 340 341 341 342
316 316 316 316 316 316 317 317 317 317 317 317 316 318 317 323 326 325 326 325 324 323 320 323 319 310 306 318 312 315 318 322 317 316 316 317 320 319 316 314 316 315 317 318 323 318 321 315 313 304 306 306 307 303 299 297 304 303 305 305 303 307 309 309 312 319 325 322 319 320 318 317 320 325 328 329 332 331 331 331 333 336 337 339 339 340 340 341
316 316 316 315 316 317 317 317 317 317 317 317 317 319 322 323 323 321 321 320 318 315 308 312 307 294 301 310 319 319 322 318 320 316 313 315 316 319 317 317 316 313 314 314 313 317 316 312 310 307 302 301 303 305 303 305 309 308 308 305 305 303 305 307 317 322 324 319 317 316 315 316 320 324 325 328 329 329 329 330 330 335 337 338 338 339 340 341
316 316 316 315 316 316 317 316 316 316 316 313 312 314 319 311 311 315 319 319 316 314 314 314 313 311 312 313 314 318 322 321 313 313 314 313 317 316 316 315 316 315 311 309 311 314 313 306 301 301 303 305 307 308 308 308 310 311 310 308 306 305 306 310 316 322 325 318 316 317 316 317 320 323 324 327 326 324 325 327 329 332 335 336 337 338 339 340
316 316 315 315 315 316 316 315 315 315 315 312 311 313 305 306 306 306 313 315 318 320 317 317 318 314 312 316 318 318 314 309 313 310 312 317 317 316 313 313 311 308 307 311 310 313 312 303 303 305 307 308 309 310 309 308 309 309 308 307 304 307 304 310 314 322 324 317 314 317 317 317 319 321 324 326 323 322 323 326 328 331 335 336 336 337 338 340
316 316 315 315 315 315 316 315 314 314 314 310 315 310 311 313 319 320 316 308 315 318 319 319 320 317 321 319 321 321 319 313 306 307 311 318 318 313 311 311 309 306 307 309 310 306 304 303 306 308 310 311 310 310 310 308 307 308 307 305 305 303 309 310 315 323 322 319 314 317 315 314 318 321 324 325 323 323 326 326 328 331 332 334 336 336 338 340
316 316 315 315 315 314 314 314 313 312 311 311 308 308 309 316 321 322 318 312 310 317 315 316 315 316 317 322 323 323 314 309 303 306 311 318 315 315 312 309 307 306 306 307 303 301 300 303 308 311 310 309 309 309 309 308 307 305 305 303 302 306 304 299 310 321 321 318 314 317 313 314 321 323 323 325 325 326 327 328 330 332 331 332 335 337 339 340
316 316 316 315 315 314 313 313 312 314 310 310 309 310 316 318 320 319 315 307 307 312 315 316 315 314 314 314 319 318 313 309 307 306 316 319 312 313 312 310 306 305 301 305 304 301 301 304 310 310 309 308 307 308 306 303 301 303 308 306 304 305 304 304 303 319 321 319 321 316 310 309 315 317 319 324 329 329 328 331 330 330 332 333 336 340 341 340
315 315 315 315 314 314 312 311 311 310 312 312 311 314 319 324 323 322 313 307 307 308 318 317 317 316 317 323 320 312 311 312 308 311 318 319 312 311 308 310 306 303 303 304 305 303 303 307 309 308 308 308 306 305 306 304 299 300 304 308 309 308 306 307 316 314 310 309 319 314 300 301 308 316 318 321 324 325 326 327 327 330 332 333 336 338 341 341
315 315 315 315 313 312 311 307 310 310 312 309 314 320 322 320 322 324 312 303 298 307 314 308 317 310 321 312 315 313 312 306 312 313 320 320 319 313 310 304 307 299 303 301 301 301 303 308 308 306 305 304 305 305 307 305 299 298 299 306 308 307 306 305 308 311 302 302 312 315 298 296 304 312 316 319 322 322 324 323 327 330 330 332 336 338 339 340
314 314 315 314 313 311 305 304 310 312 308 312 318 321 319 317 321 321 307 299 295 309 305 310 311 309 317 312 313 312 298 301 315 316 318 321 314 316 305 302 306 307 306 306 301 296 305 305 305 306 305 304 302 300 305 305 300 297 301 305 306 306 305 304 304 307 300 309 315 315 304 298 300 305 313 321 321 320 320 320 328 328 329 330 335 339 339 340
313 313 313 313 312 310 305 307 307 309 311 313 319 317 315 316 320 318 305 294 295 312 305 305 310 315 313 313 313 307 305 311 306 309 318 319 317 312 308 301 301 302 305 302 293 299 303 301 304 304 303 302 300 303 305 306 302 299 305 307 305 305 304 302 299 299 304 306 301 306 313 300 301 307 318 321 317 317 319 320 326 328 329 330 334 338 339 340
313 312 312 311 310 310 310 307 309 309 316 317 315 314 316 316 318 306 298 291 307 310 318 306 318 312 310 311 308 309 308 311 303 309 315 318 316 309 304 304 304 303 305 303 296 298 304 304 304 305 302 300 304 306 306 306 302 306 308 308 307 308 306 303 300 301 303 297 296 301 306 296 298 307 312 318 316 316 319 321 325 329 329 330 333 336 338 340
312 311 311 310 309 308 311 310 308 313 314 315 314 314 315 316 309 300 293 289 310 300 310 310 307 304 307 304 303 306 305 308 311 310 313 311 313 315 313 311 306 304 303 305 303 303 305 313 309 305 302 305 305 306 307 305 306 307 309 307 300 301 299 301 299 300 295 294 294 303 307 302 296 302 309 312 313 318 320 322 325 328 329 331 333 335 337 338
311 310 310 309 304 308 308 303 307 312 314 314 314 315 315 311 301 295 292 299 310 306 310 306 305 308 303 301 298 304 305 306 307 307 306 312 309 312 308 307 309 303 300 299 299 302 304 305 305 305 309 308 306 304 306 307 308 308 301 298 298 298 299 297 297 297 293 288 296 303 306 306 296 300 307 318 320 320 322 322 325 327 328 331 332 334 337 337
310 309 309 307 308 310 305 303 309 311 311 313 315 314 309 298 300 292 294 312 299 302 303 301 306 304 303 303 301 301 301 306 306 305 304 304 303 302 302 298 300 295 294 294 295 299 299 301 304 305 313 307 306 303 301 301 302 304 301 297 294 289 291 289 291 293 290 290 298 306 307 302 300 302 308 314 318 319 324 326 327 328 329 331 332 333 337 337
308 308 309 309 309 306 307 310 311 311 312 313 313 312 303 295 290 296 297 302 297 306 303 310 305 305 304 302 300 303 305 300 305 305 307 306 303 304 305 305 302 300 292 295 296 296 296 300 302 304 306 308 304 299 293 300 299 300 299 295 292 290 287 285 286 291 291 296 303 305 309 298 302 307 312 313 316 320 325 328 330 330 330 331 331 334 337 336
307 308 305 309 310 310 312 313 313 314 313 318 313 307 302 294 294 313 302 303 302 310 310 306 307 306 304 299 302 304 298 304 303 302 306 302 303 300 302 304 304 302 300 298 295 293 291 292 298 302 298 306 304 302 298 297 300 297 300 299 295 291 289 287 288 287 289 292 297 305 300 297 299 303 314 318 321 325 327 330 330 331 332 332 333 336 337 336
307 306 307 309 310 311 312 314 314 315 314 314 309 302 295 292 297 297 299 302 306 308 306 310 306 304 301 302 304 305 304 299 305 301 300 302 298 300 300 301 305 304 301 296 297 298 296 295 299 303 304 305 304 305 305 304 301 300 301 299 295 296 295 291 290 289 291 293 296 300 298 302 302 312 320 321 323 325 328 329 331 330 331 331 334 336 336 336
306 308 312 310 314 317 314 315 315 315 313 310 304 298 294 299 297 302 301 309 308 305 306 306 304 300 298 299 303 304 306 302 301 301 299 303 304 302 305 304 304 305 299 296 297 294 297 293 303 305 305 304 305 306 306 305 295 297 300 295 298 300 300 296 299 301 298 293 295 304 303 309 312 314 317 319 321 323 326 328 329 330 330 330 334 336 337 337
305 308 309 314 315 319 317 317 317 315 313 308 301 295 302 304 306 305 311 306 306 306 304 297 297 298 297 297 299 302 302 304 301 298 294 303 300 304 304 305 308 306 305 303 298 301 293 293 301 302 301 304 305 308 306 308 301 298 295 297 299 304 300 295 290 291 291 290 294 301 300 302 303 300 315 317 318 320 325 326 328 329 328 328 332 335 336 337
303 305 310 312 316 319 319 319 318 314 311 307 300 311 311 304 311 307 308 305 305 305 300 300 297 304 299 298 296 300 302 299 297 299 295 302 296 306 305 305 307 307 307 307 301 299 301 293 298 301 301 304 306 306 305 306 307 303 301 302 298 291 292 294 293 290 289 290 291 298 301 302 301 304 312 313 315 318 322 325 326 326 326 327 331 334 336 338
304 306 305 313 322 321 320 320 317 313 309 304 301 302 309 307 310 308 308 308 308 305 299 300 298 303 301 297 300 301 300 295 298 297 296 298 295 303 306 307 304 308 308 306 302 301 301 293 295 300 302 302 303 302 295 298 304 305 303 298 300 296 295 296 295 293 291 289 291 294 297 295 306 308 314 314 316 319 322 324 326 326 326 328 331 334 336 337
307 304 301 313 323 323 322 320 315 312 307 301 301 304 309 306 309 310 310 309 306 304 301 301 303 299 301 301 301 301 303 302 298 297 299 299 298 304 304 308 304 306 308 308 304 305 297 298 291 297 300 300 295 300 297 299 298 297 297 295 298 298 300 298 300 298 295 292 290 292 292 296 303 312 316 316 318 320 324 325 326 327 326 329 332 335 337 338
306 304 306 319 324 324 322 317 310 307 305 306 308 308 310 308 310 310 311 312 308 311 306 303 302 299 301 300 299 308 305 305 303 299 299 299 299 297 304 306 307 305 307 306 304 301 298 296 294 296 295 295 293 298 301 302 303 300 298 295 296 294 295 294 290 300 301 297 294 292 290 297 306 317 317 317 319 321 325 326 326 327 327 329 333 336 338 338
305 299 304 319 319 324 317 308 308 309 306 304 304 309 308 318 310 310 311 312 310 307 310 307 306 304 302 300 301 306 306 304 305 305 303 300 303 301 304 306 306 306 305 300 302 304 303 297 297 293 294 296 300 302 303 305 305 303 300 297 298 295 297 293 289 292 298 300 303 300 296 298 309 316 316 318 321 322 325 327 327 327 327 329 334 337 338 339
303 303 316 316 317 314 313 306 309 309 305 308 313 312 313 312 310 311 309 310 310 313 309 308 308 307 302 303 311 307 308 306 307 305 306 308 308 310 312 313 307 306 307 302 306 304 319 298 296 296 299 301 302 303 304 304 303 300 299 299 298 295 297 296 294 296 296 297 297 296 295 301 308 318 318 319 321 324 325 327 327 327 328 330 334 336 337 337
302 303 307 315 318 314 309 302 302 302 304 309 310 309 312 310 309 308 308 312 311 309 309 310 311 311 305 306 305 305 310 303 310 308 306 309 308 315 315 315 315 304 304 301 302 306 300 297 294 292 288 291 295 297 298 301 302 297 294 298 299 299 299 299 300 299 296 295 298 297 292 297 308 322 320 322 324 325 325 327 329 327 328 332 334 336 337 337
300 304 305 309 318 311 302 305 304 301 305 305 306 305 305 308 311 311 313 312 314 313 312 310 312 314 308 307 305 312 316 308 306 312 309 313 310 316 315 316 313 315 309 310 324 309 300 298 295 288 287 287 286 288 291 292 295 296 300 299 299 299 298 298 295 295 291 296 300 296 296 302 314 320 320 322 323 323 325 327 329 329 329 332 334 335 335 335
302 298 307 310 313 309 307 308 308 304 302 304 301 303 305 305 312 315 315 314 316 315 313 315 316 317 313 313 309 309 314 313 309 309 308 308 311 313 315 315 315 320 334 338 321 308 300 301 296 293 292 290 293 294 301 302 297 295 297 298 298 299 299 298 294 293 292 293 298 298 305 307 313 316 318 320 322 322 323 326 327 327 329 333 333 334 333 334
304 302 304 302 309 308 308 307 308 309 303 307 298 311 309 310 311 313 315 310 316 314 314 314 314 311 311 312 310 310 312 313 312 310 310 310 311 312 315 315 314 326 334 325 318 304 300 297 298 298 296 297 297 299 302 302 298 299 298 298 298 298 299 298 296 295 296 296 291 300 310 309 311 316 318 319 322 323 325 326 327 328 329 331 332 333 336 332
300 307 308 310 301 295 303 304 309 308 310 310 307 313 309 309 309 308 314 316 316 316 310 313 314 314 313 311 312 307 310 311 310 309 311 312 310 312 311 314 313 323 322 313 313 304 299 296 301 299 298 298 299 300 301 301 300 300 301 300 299 298 299 298 298 298 302 297 293 303 311 309 312 317 320 321 322 323 325 327 329 330 329 331 331 330 330 330
308 306 307 311 304 307 306 307 310 309 307 307 307 315 309 311 309 312 315 312 313 313 315 307 309 313 314 315 313 310 310 303 305 312 310 309 310 308 307 310 313 315 315 311 311 310 299 296 302 302 301 300 299 299 300 299 300 300 300 300 300 299 297 298 300 302 304 301 301 311 311 311 315 319 321 322 324 325 326 328 329 328 328 330 330 329 329 329
300 300 301 307 307 305 307 308 308 306 303 309 306 310 311 309 309 311 314 312 308 312 317 311 311 313 314 315 314 310 312 312 309 307 311 309 308 308 309 311 308 311 314 310 312 311 303 303 312 301 296 297 301 302 301 300 299 299 300 300 300 299 299 298 299 301 305 307 310 312 309 309 314 321 321 321 321 323 325 325 326 328 329 330 329 329 329 330
306 308 308 302 300 303 309 308 305 304 300 303 304 307 310 312 311 314 315 318 313 313 315 313 315 313 315 313 313 314 315 315 314 313 314 311 308 313 309 309 312 310 311 310 311 311 308 304 306 300 296 294 299 303 303 302 301 300 299 299 299 299 299 300 301 301 301 306 309 309 306 307 312 318 319 320 322 323 323 324 326 327 329 330 329 329 329 329
308 310 311 306 299 310 303 306 305 303 298 304 309 307 311 312 314 315 310 320 320 319 319 319 317 312 311 312 311 315 318 317 317 318 317 317 315 313 313 312 313 312 312 311 313 306 307 303 300 300 295 294 300 304 302 300 297 295 296 299 300 300 300 301 301 305 307 312 308 305 307 313 317 320 319 320 322 323 324 325 326 328 329 330 329 329 329 328
Wind_Speed
21 20 20 20 20 20 20 21 21 21 22 21 21 20 19 20 21 21 21 20 17 14 13 12 12 12 12 12 12 11 8 6 4 3 6 13 7 11 12 1 15 16 12 6 4 8 4 6 8 8 6 6 6 7 7 6 4 2 1 2 1 1 2 1 2 2 4 7 6 6 3 8 6 3 4 5 6 4 3 3 2 4 5 3 4 5 7 5
21 21 21 20 20 19 20 20 21 22 21 21 22 21 20 21 22 23 22 19 18 15 12 11 11 11 11 11 11 11 7 3 5 7 16 9 15 16 13 11 12 16 11 5 9 9 6 7 9 6 5 4 5 4 8 3 6 3 1 2 1 1 1 2 3 7 6 4 7 5 6 5 6 7 4 3 4 4 3 2 3 4 4 7 6 6 7 6
23 22 22 21 21 21 20 20 20 21 21 22 22 22 21 21 22 22 22 19 18 15 12 11 10 10 10 10 11 9 6 4 3 8 14 22 22 18 14 8 16 18 14 7 8 11 12 8 7 8 5 6 4 6 4 3 3 3 3 1 1 2 1 3 5 7 3 9 7 7 6 5 6 3 2 4 7 4 6 5 2 4 9 9 4 4 5 6
23 24 23 22 22 23 22 21 20 20 21 20 20 22 21 21 22 22 22 20 18 16 12 10 9 9 9 10 9 5 3 2 2 4 3 4 20 21 17 13 17 17 7 3 6 7 4 2 2 3 3 7 8 5 4 4 3 2 3 3 4 4 4 1 5 5 8 10 8 8 5 5 7 4 3 6 6 2 2 5 11 11 10 8 7 4 5 7
23 23 24 24 24 23 23 23 21 20 18 19 20 21 21 21 22 22 23 20 18 15 12 9 8 8 9 8 7 2 0 3 1 2 1 8 12 20 16 15 17 12 10 1 1 3 3 3 2 4 5 3 10 2 5 5 5 3 2 7 9 5 3 6 5 8 8 6 9 6 9 6 6 3 5 9 7 6 8 8 4 9 10 11 9 7 4 6
23 23 24 25 24 24 24 24 22 21 21 21 21 22 21 22 22 21 23 20 17 15 12 8 7 8 8 7 3 3 0 1 2 4 8 7 8 16 15 14 15 10 5 2 1 1 2 2 3 1 2 3 4 5 3 9 6 3 3 6 8 6 6 3 5 7 7 6 7 9 7 7 9 5 8 12 6 5 7 7 7 6 7 7 8 7 6 6
23 23 24 25 25 25 25 25 24 23 22 22 22 22 23 23 22 22 22 19 16 14 11 7 7 7 7 6 1 1 1 7 4 6 9 8 13 19 16 13 11 6 4 3 2 2 1 2 0 3 2 6 9 3 6 2 3 8 3 4 5 8 8 6 4 6 5 7 7 5 5 8 8 6 5 8 3 5 8 8 7 6 7 8 9 8 9 8
23 23 24 24 25 25 25 26 26 25 24 24 23 23 24 24 23 22 21 19 16 13 9 7 6 6 5 2 2 2 2 8 15 6 8 12 9 16 16 8 8 5 6 7 4 3 1 3 6 1 5 8 3 7 2 3 3 6 3 4 5 6 7 8 7 6 4 4 3 7 6 7 9 6 8 6 4 5 7 7 8 8 7 6 6 7 7 7
23 23 24 24 24 25 26 25 26 26 25 25 23 23 25 24 22 22 21 18 15 12 7 6 6 5 2 1 2 1 6 8 5 6 10 10 10 11 14 7 5 9 3 3 5 3 1 4 3 3 5 7 0 7 5 5 1 4 7 5 7 6 9 8 6 5 5 3 4 5 4 4 6 7 4 7 4 6 9 9 9 9 8 7 8 6 5 5
21 21 21 21 22 23 23 24 24 26 24 23 21 24 26 24 23 22 20 17 14 9 7 5 5 5 1 1 2 2 6 6 2 9 10 12 10 11 7 7 11 6 5 6 3 6 7 7 7 4 2 8 2 1 3 4 4 3 7 10 10 10 10 6 8 5 3 3 2 5 3 4 4 5 1 2 8 7 8 9 10 10 9 8 7 7 7 7
24 24 23 24 24 24 25 24 24 24 25 22 23 24 25 25 23 23 20 15 13 8 4 5 4 3 2 2 4 5 8 4 2 6 12 13 13 11 10 8 10 9 6 3 10 12 10 10 7 3 4 3 1 2 1 3 3 5 7 9 8 10 8 7 6 6 4 1 1 5 3 1 2 1 7 8 8 10 11 9 10 9 9 8 7 7 6 7
23 24 24 24 24 24 26 24 24 24 24 24 25 25 25 24 24 22 19 14 10 5 3 2 3 2 2 0 4 8 2 4 4 3 8 13 11 14 13 11 13 11 10 8 8 12 11 5 4 3 4 2 3 1 1 1 2 3 7 4 6 8 5 4 9 5 4 2 4 2 3 0 3 4 6 13 10 10 11 10 8 9 8 8 7 6 6 7
23 24 24 25 26 27 27 27 26 26 26 24 24 24 24 25 23 20 16 12 5 4 3 0 1 1 1 2 10 10 5 3 4 5 2 3 1 1 3 5 9 9 12 7 6 4 3 6 6 5 4 0 2 1 2 2 2 3 2 4 3 3 3 7 1 5 4 3 7 4 1 6 6 6 8 12 11 10 10 9 9 8 8 8 8 7 7 6
24 25 25 26 27 28 28 27 27 26 27 23 23 24 24 25 23 19 13 9 7 3 3 1 1 0 0 6 6 3 7 4 4 4 6 5 1 3 4 4 5 5 5 8 9 4 9 7 4 7 3 3 3 2 3 2 2 2 0 4 3 4 3 6 4 7 5 2 9 5 1 6 5 6 9 13 14 13 12 10 10 9 9 8 8 8 8 8
25 26 26 27 28 28 28 28 27 28 27 24 23 24 24 24 22 15 11 6 5 3 3 2 1 1 0 8 7 9 14 4 8 8 9 9 6 2 4 5 6 8 8 9 4 4 4 5 5 3 3 2 1 3 4 2 2 1 1 2 2 3 2 4 5 11 7 1 7 6 1 6 4 9 9 14 13 13 12 11 11 10 9 9 8 8 8 8
25 26 26 27 28 29 29 28 25 24 24 25 25 25 24 21 16 12 7 4 3 2 0 0 1 1 2 8 5 9 4 4 6 15 10 12 9 5 8 10 6 6 4 5 8 7 4 2 3 2 3 6 3 2 3 3 2 1 3 3 2 2 3 1 8 9 6 6 3 7 3 0 3 7 7 9 12 12 12 11 11 11 12 10 9 8 7 6
25 25 23 26 28 29 27 26 24 24 25 25 28 25 21 17 12 7 6 3 1 2 1 1 1 2 1 4 5 4 3 3 3 3 8 10 11 5 7 4 3 6 6 7 6 6 3 3 2 2 1 2 1 2 2 4 6 4 1 4 3 4 3 4 2 6 3 7 3 5 2 7 4 9 8 7 11 11 11 12 12 11 9 10 8 8 8 7
23 23 23 23 28 28 27 25 24 24 25 24 26 24 19 18 11 2 1 1 1 2 2 2 2 1 8 2 2 3 0 0 2 4 7 7 9 6 7 3 2 6 4 4 2 4 1 1 1 2 2 2 1 1 2 6 6 5 2 3 3 2 10 8 6 7 6 3 9 4 6 8 5 8 8 9 9 11 12 11 11 11 10 10 8 8 8 7
25 23 22 22 23 25 26 26 23 22 24 27 24 19 8 3 2 1 0 2 1 1 1 0 1 2 2 2 5 6 3 5 1 5 4 3 3 4 5 3 4 4 2 3 2 5 0 1 1 1 4 5 6 6 8 10 5 9 7 4 3 4 5 5 9 4 15 6 4 5 8 8 4 8 6 6 7 10 10 8 8 9 10 10 9 8 9 8
25 24 22 22 24 24 26 25 23 22 22 20 11 6 1 3 3 1 2 2 4 7 12 9 7 7 14 15 11 4 4 7 5 7 4 4 2 4 5 4 2 3 4 6 2 6 4 5 4 7 8 9 11 8 9 7 7 12 13 6 5 3 6 4 4 7 12 7 7 8 6 3 6 9 8 6 4 5 5 6 7 8 9 9 9 9 9 9
23 22 22 23 24 26 25 27 24 23 21 8 7 3 4 2 4 6 8 9 10 11 11 12 11 12 13 7 7 5 5 3 6 5 9 4 5 4 3 5 4 6 4 5 6 2 3 5 7 8 10 11 13 11 7 6 7 12 11 8 6 3 7 6 10 10 10 8 6 6 3 4 6 5 6 4 4 6 6 5 8 9 9 9 10 9 8 7
23 22 22 23 24 25 25 27 26 23 14 1 1 4 4 5 6 4 3 9 9 11 12 14 8 11 12 13 15 6 6 6 4 5 4 8 4 8 2 6 5 8 3 3 3 2 5 9 9 10 11 11 12 10 10 9 9 10 11 7 7 4 6 3 6 11 9 6 7 5 3 3 5 4 4 6 7 4 5 6 8 9 10 8 8 8 6 6
24 23 23 23 24 26 26 27 25 21 1 3 8 10 6 8 6 5 2 5 13 3 7 8 8 10 15 11 9 4 7 5 6 5 4 6 5 9 6 6 7 4 3 5 8 5 5 8 12 13 10 9 11 12 12 12 8 8 8 5 8 5 5 3 6 14 9 7 6 5 5 3 1 0 4 5 7 3 4 3 8 10 11 10 11 10 9 8
23 24 23 23 25 26 28 27 25 4 2 8 10 7 9 8 10 5 1 3 7 13 6 9 10 7 10 7 3 9 8 4 5 6 4 6 8 5 4 7 6 5 6 6 7 8 9 6 9 10 8 10 12 12 10 7 8 5 9 8 6 8 6 5 4 10 9 4 5 8 2 2 1 4 3 5 4 4 2 4 4 4 7 7 5 7 10 11
23 23 24 24 24 26 29 25 3 4 10 11 4 5 6 10 9 3 4 4 3 8 4 3 6 4 8 3 6 2 4 2 5 3 5 8 5 4 4 2 4 8 7 7 9 8 9 11 4 6 11 10 9 11 13 8 8 7 6 13 14 11 7 6 20 14 3 1 3 11 2 3 3 4 7 4 3 4 4 6 5 5 4 7 8 9 7 8
21 22 22 21 22 24 29 4 3 9 13 6 6 6 11 12 12 10 2 1 6 5 2 1 4 5 4 3 3 2 1 3 6 4 8 8 7 6 2 3 3 7 9 5 7 4 8 8 9 11 8 6 8 9 14 5 6 4 7 6 11 7 5 5 9 11 5 7 10 6 4 2 3 4 5 4 5 6 3 6 6 6 6 8 9 9 9 10
21 21 21 20 18 20 12 3 5 11 5 3 3 10 11 13 10 10 2 1 4 3 2 1 1 1 2 3 7 4 1 6 5 3 7 6 7 4 5 6 2 2 4 2 1 4 5 9 10 10 9 10 7 10 9 7 6 8 8 5 3 3 3 4 11 9 4 2 2 7 2 3 1 6 5 6 7 5 4 4 6 7 7 7 9 10 9 10
21 21 21 19 16 10 5 6 9 6 9 6 8 11 13 11 10 2 2 1 2 3 1 2 2 2 1 5 9 6 6 1 3 4 10 7 5 3 3 5 7 8 5 6 8 5 6 7 12 12 11 8 9 11 11 7 4 7 9 6 1 3 4 5 7 7 5 8 2 6 2 3 2 3 0 8 6 5 8 7 6 7 7 9 10 10 10 11
21 22 21 18 18 20 5 5 2 8 4 5 11 12 10 12 2 2 1 1 1 0 2 3 5 2 1 2 5 6 5 2 2 2 3 2 3 6 5 7 4 4 3 2 6 3 3 7 10 14 9 9 12 13 12 8 7 9 12 3 3 1 2 2 3 8 2 3 5 9 5 2 1 2 1 2 4 8 10 10 9 9 9 10 10 9 10 9
24 23 21 18 14 3 1 3 9 12 9 10 11 12 13 4 2 2 2 1 0 2 1 0 1 6 2 6 3 5 7 1 2 2 2 5 5 1 1 4 3 4 4 3 5 8 8 7 4 4 7 9 8 13 12 9 11 4 0 1 4 5 2 3 5 4 5 0 6 9 7 6 1 4 6 7 8 12 9 3 3 5 6 9 10 11 10 9
25 24 20 13 6 3 5 7 10 10 9 6 9 11 2 2 1 2 0 3 2 1 1 1 2 5 6 8 5 4 6 3 1 4 1 2 2 0 2 0 2 1 0 2 4 5 6 4 3 3 7 4 4 5 3 4 5 2 1 2 5 7 7 5 3 4 1 4 9 3 8 5 3 1 6 10 4 7 13 12 12 11 11 10 9 9 10 9
26 26 24 12 8 3 5 7 2 2 6 9 8 4 2 1 3 3 6 4 0 1 1 2 3 4 7 6 5 5 6 1 2 2 4 3 4 5 3 4 4 3 5 2 6 5 5 6 4 5 4 9 1 2 7 5 7 2 2 6 1 3 3 3 4 1 4 7 4 6 11 5 0 6 8 10 12 5 10 12 15 15 12 10 10 11 9 9
26 26 29 15 9 7 12 18 8 8 8 7 2 2 2 3 3 5 4 3 0 1 2 2 3 5 5 5 4 5 5 7 2 3 7 2 6 7 4 7 6 6 2 3 3 0 7 6 4 5 4 3 5 5 2 1 3 3 2 2 4 1 1 2 3 1 3 8 3 4 3 2 2 4 3 5 8 10 10 11 13 14 14 11 10 10 11 10
27 26 15 6 7 13 9 6 4 1 2 2 1 4 3 2 5 4 5 2 6 4 5 2 3 3 6 7 6 7 4 5 3 3 8 3 5 6 4 6 5 2 4 1 2 3 3 6 7 3 3 4 5 7 7 4 1 3 2 6 7 6 3 2 2 3 3 7 4 1 2 4 4 4 2 6 2 3 7 8 10 11 12 9 9 12 12 11
30 21 12 12 9 13 18 10 4 6 4 1 4 3 3 6 2 1 1 3 2 7 9 11 7 6 6 4 4 7 8 2 6 4 4 8 6 4 5 6 7 4 2 2 2 1 5 7 8 6 5 5 7 5 6 3 1 2 4 7 4 6 6 4 7 5 3 1 0 3 1 2 2 2 2 2 3 3 5 7 9 10 9 9 11 12 11 10
20 9 8 8 4 5 11 8 8 7 5 5 5 2 7 4 2 0 1 4 3 7 15 15 5 6 4 5 4 5 6 4 4 4 3 9 11 10 9 5 7 11 5 7 3 1 3 5 7 4 3 5 9 5 4 6 4 3 3 4 9 3 4 1 2 1 3 4 2 0 2 1 3 4 5 4 4 4 6 8 9 11 11 11 11 11 11 10
10 11 7 4 6 4 9 11 10 8 3 5 5 5 4 3 4 5 3 8 10 8 6 6 5 2 5 7 4 7 6 3 2 4 3 4 3 8 7 7 11 11 11 10 4 3 2 6 5 2 7 7 5 8 5 7 6 3 1 9 2 2 4 3 3 2 1 2 2 2 6 2 2 2 1 2 1 2 6 7 9 10 10 11 11 11 11 11
11 5 9 8 10 7 12 13 12 4 4 4 3 5 1 2 0 5 6 10 8 5 3 1 5 2 1 1 4 1 2 6 4 4 3 8 3 8 8 4 7 12 15 11 6 3 5 8 8 5 7 8 3 2 2 3 5 9 7 3 2 0 1 3 2 0 0 1 3 0 1 0 4 4 3 5 7 6 5 6 8 9 9 10 10 11 10 9
5 3 8 6 2 12 13 14 8 7 2 2 3 1 3 5 3 6 5 6 4 8 4 5 4 1 2 1 4 3 6 4 5 7 3 3 3 7 14 8 7 13 14 11 6 3 3 3 7 3 1 2 1 7 7 5 5 1 5 3 0 3 3 0 5 4 4 3 2 1 2 4 6 6 12 11 9 9 8 7 9 10 9 10 9 10 10 10
6 4 3 4 6 11 15 10 6 2 2 3 2 3 2 6 6 8 9 4 4 2 3 5 4 5 2 1 3 2 2 1 3 3 1 4 5 3 9 11 5 11 14 15 10 7 3 4 5 5 6 5 1 5 10 10 10 3 1 0 0 1 3 4 1 3 3 4 3 5 2 5 6 5 10 11 11 11 12 11 8 7 7 10 11 11 10 10
3 2 6 1 6 9 11 6 3 2 1 3 2 4 5 6 7 9 12 12 7 6 7 6 5 3 1 3 4 1 0 1 1 1 2 2 3 1 5 7 7 8 7 10 10 4 2 4 9 6 5 2 4 7 6 12 13 9 10 8 8 5 3 2 6 2 2 3 3 5 4 5 8 4 8 9 8 9 10 12 8 7 8 11 11 11 11 10
4 2 2 3 7 3 7 6 2 3 1 3 3 1 3 6 7 10 9 7 7 6 4 6 8 5 4 3 4 1 2 1 2 1 1 2 1 2 6 8 9 7 10 7 10 9 8 4 3 5 5 7 8 9 6 14 12 11 10 7 8 5 6 3 2 4 1 0 5 3 5 5 4 2 6 8 9 8 9 10 10 8 10 11 12 12 12 12
4 6 12 14 8 3 1 1 0 1 2 3 5 10 10 9 8 9 8 6 6 2 3 3 5 10 5 2 1 0 1 0 1 1 1 1 2 1 6 11 8 3 10 6 10 6 5 1 2 3 5 6 6 7 2 2 5 2 5 1 4 5 7 7 6 4 3 0 4 3 1 5 5 1 5 6 6 7 7 11 12 9 9 11 12 12 11 10
3 6 9 5 4 2 2 3 2 5 5 6 6 9 6 7 8 9 4 5 4 3 5 4 9 7 9 5 3 3 2 0 0 3 2 1 3 8 7 12 14 3 6 5 8 5 3 2 5 0 2 6 9 8 5 2 2 3 4 5 6 5 6 4 2 2 0 3 10 8 5 4 3 2 5 7 9 9 9 7 12 10 8 10 12 12 11 12
5 5 6 8 4 2 3 3 3 3 3 3 3 6 5 3 4 4 2 4 4 4 6 4 6 12 7 6 4 1 0 2 0 0 2 0 4 5 7 10 7 7 5 10 12 9 6 4 5 4 4 2 4 2 2 3 9 2 1 4 6 9 5 3 4 1 4 3 8 5 2 6 3 3 4 6 8 7 7 9 8 11 11 12 11 12 12 12
4 3 5 3 4 3 1 2 1 2 3 3 4 4 3 3 1 4 4 1 9 5 2 4 9 10 11 16 5 3 2 3 4 1 3 3 4 3 5 10 7 9 21 4 9 8 2 2 5 8 8 8 10 6 4 1 2 3 5 5 3 4 7 4 5 4 6 3 2 5 10 7 6 5 6 7 9 11 10 9 11 11 11 11 12 12 13 12
3 1 3 5 6 3 3 3 6 6 4 4 3 1 3 2 3 2 6 1 8 8 4 5 8 10 9 12 9 3 2 1 3 3 4 3 2 3 6 6 6 15 17 9 2 3 2 1 3 6 8 11 8 8 5 3 1 4 6 6 6 4 4 6 5 9 6 4 6 3 8 15 13 9 9 10 10 11 12 12 12 12 12 13 14 14 14 13
1 2 2 1 1 3 6 6 8 9 11 7 3 1 2 3 3 3 3 5 3 7 6 2 7 7 3 5 5 3 7 4 5 3 4 3 2 7 6 7 3 9 11 3 4 4 1 2 2 3 4 5 4 7 5 2 4 4 5 6 6 5 3 6 7 9 7 6 9 7 12 16 14 15 16 15 15 15 15 14 14 13 10 7 9 12 15 15
2 3 2 8 2 2 2 9 10 8 9 7 2 2 2 1 3 2 1 3 3 4 7 1 7 9 8 6 5 2 4 4 5 3 4 4 4 4 5 6 5 10 7 4 3 1 2 4 3 2 2 3 3 3 4 5 3 5 4 5 6 6 7 8 8 7 13 8 8 16 16 15 14 13 13 14 12 11 9 5 7 9 11 10 9 9 11 11
4 3 4 5 3 5 6 5 4 6 6 7 3 1 1 3 3 4 2 3 2 4 4 2 7 7 7 6 3 3 5 8 8 8 7 4 6 4 2 1 5 5 6 4 2 5 6 2 7 4 4 3 4 6 4 2 5 4 7 6 5 4 4 5 4 4 4 7 7 16 8 4 3 4 9 4 5 4 5 9 12 11 11 12 12 12 11 10
2 2 2 4 6 5 4 3 5 5 4 6 5 7 2 1 2 1 2 1 3 1 2 2 5 5 4 8 7 3 8 10 12 15 18 7 2 3 0 3 1 3 5 5 3 3 6 1 1 4 6 5 5 9 7 6 3 1 4 8 8 5 5 1 4 3 5 7 11 10 5 4 4 6 4 7 9 11 13 12 10 10 12 12 13 11 10 7
3 1 1 1 1 3 5 4 5 3 2 3 4 8 2 2 1 1 2 1 3 3 1 1 4 2 4 10 9 9 12 9 11 12 12 19 10 4 2 3 1 1 2 1 1 3 1 1 3 3 5 3 5 4 5 4 6 5 6 7 7 6 5 1 3 4 7 18 14 10 11 9 9 9 10 7 10 11 10 11 10 9 11 12 13 10 8 7
Wind_Direction
353 351 351 351 351 349 346 344 341 340 339 337 338 338 338 340 341 342 340 336 332 329 323 319 312 311 308 309 308 313 325 326 317 217 194 239 206 222 192 104 160 184 174 160 157 128 187 206 225 210 204 202 221 227 222 191 198 113 172 130 19 169 67 239 145 167 154 139 161 165 157 126 123 142 119 81 56 56 67 65 39 48 52 82 101 106 132 142
352 350 349 348 348 347 346 343 341 339 338 335 334 334 335 338 340 341 340 337 334 329 325 318 314 308 307 307 307 318 327 273 250 242 227 221 207 229 224 236 175 172 155 168 179 187 176 211 217 181 199 229 194 240 160 223 147 148 135 83 163 172 215 154 148 127 134 169 167 168 154 140 153 145 177 108 150 133 90 32 35 87 67 77 84 106 133 147
350 349 348 346 345 345 344 343 341 339 336 335 332 332 332 336 338 340 340 338 334 332 325 318 311 308 304 304 309 326 337 292 243 262 254 224 218 208 204 180 168 167 173 173 204 189 192 202 188 170 214 265 220 205 185 238 106 228 116 82 264 203 188 146 148 161 148 146 157 148 169 132 161 149 158 150 159 158 149 147 67 148 148 140 115 113 142 157
348 347 346 345 344 342 342 341 340 338 336 333 331 331 330 333 336 338 340 337 335 332 327 316 310 308 303 302 316 313 290 279 302 252 256 155 206 206 195 173 165 174 189 217 183 198 229 276 286 243 260 207 262 181 175 214 131 183 82 162 187 183 117 207 132 136 137 149 158 159 154 137 180 162 145 140 114 252 244 208 163 172 169 153 131 137 167 161
347 345 343 342 341 340 339 338 336 334 331 331 331 329 329 329 333 335 338 336 335 333 326 316 310 299 302 306 316 352 244 35 250 240 263 313 202 197 186 172 168 177 192 242 349 263 263 244 198 208 215 249 225 186 236 219 208 82 153 169 163 171 92 180 160 146 150 158 148 152 143 191 162 126 155 155 150 201 206 210 246 164 166 155 150 162 173 167
346 344 342 340 340 339 337 335 333 332 331 332 331 329 328 328 330 334 336 335 334 334 327 319 311 305 302 312 297 278 80 121 293 289 351 349 161 159 163 164 168 173 188 266 176 307 279 252 184 216 267 216 193 171 228 198 158 96 135 156 173 172 137 187 154 157 137 150 154 153 188 125 161 177 178 174 181 223 192 180 183 191 163 144 140 147 165 170
345 344 342 340 338 337 335 334 332 332 330 330 330 327 328 328 327 332 335 334 333 334 329 322 312 310 317 292 243 240 91 272 311 251 43 68 123 140 148 156 158 156 167 191 243 202 193 272 163 216 225 262 263 193 256 209 103 131 194 171 155 136 131 141 137 139 154 149 165 174 143 148 165 160 181 182 247 175 150 158 175 151 120 133 148 164 172 178
344 343 342 339 337 336 334 333 331 330 330 329 329 327 327 325 325 330 333 332 330 334 324 318 314 316 339 295 130 29 92 249 246 215 91 95 114 130 133 134 153 158 167 199 175 195 196 230 237 226 242 236 196 178 221 97 79 115 152 189 134 99 122 121 120 124 134 143 145 130 148 180 165 163 138 197 170 121 128 128 137 138 133 138 151 166 171 184
343 342 340 338 337 335 333 331 331 329 329 328 326 326 326 324 322 327 329 330 328 331 326 316 323 326 356 295 147 351 256 234 234 144 125 118 127 127 130 143 186 163 184 195 233 233 193 242 247 173 266 329 334 133 192 112 337 161 177 148 136 134 128 131 112 130 132 122 127 116 198 187 196 132 132 175 161 144 123 115 131 138 145 156 162 165 173 185
341 339 338 336 334 332 330 329 329 328 327 326 325 326 325 322 320 323 324 327 326 327 313 319 316 334 343 197 75 49 262 217 170 139 136 131 133 137 160 150 163 167 170 207 205 224 216 222 196 209 271 267 313 194 181 97 211 176 147 151 147 151 132 158 135 157 144 121 185 130 165 167 212 130 167 190 162 144 124 132 143 153 167 172 168 167 178 185
341 340 338 337 335 333 331 329 329 328 327 326 325 324 323 320 318 319 322 321 325 326 315 312 323 313 252 244 114 216 266 30 43 135 138 137 137 149 186 162 172 172 184 178 203 212 226 231 243 332 269 233 11 332 336 212 183 134 120 131 136 148 139 150 131 156 121 86 121 131 178 203 217 98 185 166 170 150 146 149 155 160 168 171 172 175 175 190
341 340 338 336 335 333 331 329 328 328 326 325 324 324 321 319 317 318 316 317 319 329 339 307 311 280 274 69 176 223 294 69 86 108 136 143 160 183 185 171 173 180 172 193 220 227 226 260 340 291 267 5 343 335 315 329 340 149 110 108 142 135 131 171 150 183 132 170 142 139 59 242 169 218 181 161 158 157 154 159 164 169 170 170 171 177 184 194
341 340 338 337 335 334 331 330 328 327 326 323 321 320 319 316 313 312 312 312 324 318 346 114 318 250 340 311 228 237 267 292 87 132 150 203 98 171 174 179 187 181 183 193 226 231 212 233 232 255 231 162 259 148 230 244 200 111 58 132 83 126 154 217 135 166 132 185 144 105 215 267 235 232 160 157 158 153 146 167 173 177 174 177 175 181 194 198
341 339 338 336 335 334 332 330 328 327 323 320 318 316 316 312 310 310 307 301 299 283 213 163 107 276 127 247 270 227 233 186 224 215 197 201 151 212 166 217 207 212 204 217 258 292 277 274 298 266 255 233 265 285 10 312 50 182 279 61 154 104 264 205 193 181 154 203 127 101 182 265 263 199 163 165 161 155 164 172 178 175 178 181 183 183 192 202
340 339 337 335 335 333 331 329 327 326 323 318 317 314 313 310 306 305 300 294 260 217 186 158 190 87 1 268 274 264 254 172 171 206 194 169 203 102 200 184 219 215 214 225 244 251 249 293 287 303 310 292 32 39 337 346 25 340 35 288 291 123 275 236 262 171 163 203 133 102 214 231 228 190 176 171 165 160 163 177 178 174 181 182 183 188 190 201
339 338 336 335 333 332 330 328 324 322 320 317 316 311 308 300 300 297 288 273 243 238 49 153 176 203 320 289 262 310 319 149 210 196 198 182 185 193 187 179 199 234 243 259 243 269 281 302 270 211 313 358 23 79 359 6 326 7 181 261 177 114 185 200 242 209 183 117 109 161 194 24 280 220 193 175 167 165 167 177 183 180 179 179 179 183 188 187
339 339 336 333 333 331 329 326 324 321 318 315 316 310 305 295 286 264 248 213 244 126 216 61 109 180 5 231 300 325 253 250 228 121 169 195 187 183 133 143 193 227 233 259 256 255 265 251 296 358 0 252 147 84 19 316 292 278 120 209 203 160 187 220 273 225 244 144 175 193 185 221 206 188 203 187 165 166 168 181 184 179 177 181 179 180 186 187
340 339 336 330 330 330 326 325 322 319 315 314 317 306 303 294 284 273 158 105 210 210 231 243 220 326 273 342 288 213 22 200 194 202 165 187 178 145 146 170 200 199 203 235 217 209 159 267 66 185 340 331 1 91 146 241 215 236 174 209 270 219 181 201 151 228 150 209 159 187 229 247 248 182 196 196 174 162 178 181 178 178 176 178 180 185 188 189
339 337 332 328 324 325 323 322 322 321 319 319 311 299 286 87 79 134 66 163 106 13 29 161 137 150 167 253 252 300 303 229 222 140 228 192 215 144 179 175 166 143 199 157 287 191 334 54 17 21 273 284 259 186 203 227 227 257 273 189 181 147 225 221 213 153 162 154 170 176 211 231 205 186 199 203 174 172 188 182 172 173 173 173 178 187 185 192
336 333 330 327 324 324 323 320 323 324 329 331 347 351 60 9 13 340 14 342 216 225 245 242 201 271 292 282 276 261 272 233 173 219 181 206 188 152 186 175 158 160 122 182 185 209 127 175 179 208 225 236 253 230 220 237 230 256 268 273 254 211 269 237 191 182 162 127 200 207 224 253 192 185 195 195 183 180 184 165 176 176 169 172 179 183 186 188
330 331 329 327 326 325 323 321 322 325 328 309 297 1 28 321 351 332 321 260 225 236 230 248 202 221 241 279 284 320 355 326 194 183 214 174 195 145 194 178 148 190 185 172 155 264 124 179 227 222 221 231 248 259 262 260 250 259 264 283 296 171 250 204 191 163 167 142 229 216 184 253 208 193 200 184 149 217 211 171 180 175 170 175 179 181 183 191
331 329 330 328 326 327 322 319 323 322 331 210 51 9 265 234 225 282 358 306 291 220 224 234 228 243 255 252 263 284 280 269 273 218 240 161 177 170 211 181 156 189 208 167 173 113 184 207 224 226 230 239 250 259 259 258 265 263 253 249 290 251 239 300 179 151 160 128 229 176 174 249 233 206 196 179 186 220 218 174 178 164 171 172 174 175 164 138
331 330 331 329 327 326 325 316 320 324 320 352 333 316 266 265 279 275 250 258 272 242 215 215 231 228 255 260 258 188 252 249 222 226 198 178 137 192 160 175 158 183 174 162 177 154 198 246 226 222 226 237 254 252 253 257 249 242 259 279 253 237 166 260 190 153 163 165 208 158 121 262 305 112 202 213 182 221 222 179 157 168 167 170 174 165 154 145
330 331 331 331 329 327 322 319 311 297 353 312 267 237 261 292 302 327 22 253 305 301 204 229 203 207 240 223 217 167 199 232 198 210 197 154 159 151 161 171 164 172 201 192 191 184 208 231 218 233 234 232 248 258 263 260 267 227 219 222 249 258 237 190 176 136 153 356 87 91 62 321 266 147 217 244 231 197 178 88 107 165 162 153 137 146 152 153
328 330 332 330 333 328 320 317 346 336 313 301 226 239 297 321 327 295 298 326 296 269 186 215 178 212 235 151 271 262 202 189 209 174 172 157 154 121 206 189 131 193 198 192 202 209 245 245 234 213 234 239 244 264 258 243 270 288 223 205 218 230 254 83 126 128 110 10 234 156 51 288 254 218 209 240 218 202 178 141 156 156 154 141 150 156 154 153
326 328 331 332 334 336 313 332 18 336 329 290 263 324 332 337 333 339 15 45 295 270 270 304 132 254 158 234 155 189 100 236 216 186 163 187 157 163 140 228 145 196 211 177 189 199 218 231 223 233 228 236 243 252 264 245 256 280 278 226 211 217 219 120 130 117 138 172 219 199 131 256 320 252 215 217 206 211 190 169 165 161 161 152 153 159 160 161
324 325 329 332 337 347 2 334 346 323 330 312 334 339 333 328 338 332 67 328 334 246 173 288 86 320 186 191 173 102 71 257 211 141 175 166 174 141 139 212 182 209 185 175 145 249 182 219 227 231 235 234 245 248 258 252 232 254 247 260 228 149 237 203 147 160 182 247 142 192 120 148 276 271 220 184 188 205 212 209 166 174 166 157 159 164 163 166
322 324 326 330 328 344 222 300 332 302 236 261 342 331 323 323 321 340 84 12 312 206 156 239 220 334 348 190 152 169 198 160 126 230 185 184 145 144 159 185 179 202 201 165 205 257 198 204 205 219 226 227 232 235 238 230 217 226 252 251 1 40 307 181 123 145 154 136 210 239 131 66 238 269 286 153 173 220 219 207 191 180 173 161 160 166 164 165
321 322 323 326 328 301 256 209 230 252 251 330 327 317 318 312 313 95 126 119 249 240 341 110 282 115 271 96 166 198 256 119 155 230 115 127 201 131 202 213 178 237 281 167 218 285 254 207 202 207 194 220 229 238 236 193 231 254 246 360 15 60 238 164 149 112 108 98 210 230 178 124 277 280 56 164 191 217 216 208 192 181 173 165 159 162 160 155
320 319 319 327 326 290 126 213 229 246 285 307 303 304 304 315 46 33 35 295 28 284 243 250 138 191 146 151 226 195 225 244 140 45 146 164 214 73 234 156 174 247 282 276 233 234 242 261 193 180 204 218 220 233 230 197 217 242 21 14 8 26 4 3 49 84 55 329 252 217 172 132 211 264 195 156 212 204 199 184 174 183 173 167 164 158 153 151
318 315 314 326 301 294 313 272 255 243 242 276 307 300 306 32 106 105 84 229 284 232 78 117 218 101 140 160 204 231 224 228 7 118 26 9 188 242 15 357 106 7 304 336 292 289 295 285 260 224 190 235 216 269 296 222 217 189 84 91 16 340 360 29 346 39 121 269 263 190 168 136 139 288 257 224 253 189 172 182 173 180 179 168 166 158 153 143
316 312 308 308 243 245 214 236 200 55 4 344 328 345 64 46 12 152 210 352 27 278 162 221 260 162 179 181 153 168 195 232 165 107 151 174 160 191 214 194 165 222 282 267 272 333 316 274 237 257 208 222 150 280 293 349 32 29 78 42 75 274 19 317 7 346 196 214 257 131 127 49 113 211 210 216 224 221 184 173 176 172 171 166 161 155 149 141
316 311 306 290 235 202 230 243 292 324 336 313 0 37 68 102 243 245 304 319 192 70 315 161 221 183 176 152 204 183 179 225 186 186 156 186 147 222 219 190 182 160 207 242 233 301 276 276 293 267 260 188 129 205 317 331 1 89 174 127 99 99 69 238 272 233 310 291 276 122 73 109 259 302 226 227 231 193 185 180 166 161 163 166 153 148 144 151
313 313 305 241 198 209 226 211 215 268 293 318 59 39 62 92 241 228 235 273 261 307 309 4 278 209 154 180 206 149 189 234 145 182 155 158 157 202 268 258 178 130 178 237 248 177 253 318 288 216 268 200 145 182 170 181 182 212 154 148 180 147 160 222 215 218 213 216 285 254 84 201 128 236 215 223 282 161 170 154 152 152 154 147 138 143 144 152
313 300 269 272 227 233 230 215 176 182 220 110 64 88 150 232 269 259 310 326 314 332 334 324 269 190 216 232 218 171 170 236 216 146 156 137 201 192 196 228 225 168 128 138 246 172 194 228 249 210 210 188 208 207 167 129 273 248 150 90 84 222 147 172 203 158 231 336 6 14 89 159 149 253 53 37 76 92 119 121 127 139 140 130 135 141 151 158
312 316 286 265 232 238 162 176 174 185 156 76 92 144 214 190 217 319 224 326 315 354 324 323 323 172 201 239 244 200 219 149 207 145 189 176 183 197 205 196 202 190 159 182 189 236 208 259 265 277 247 183 216 166 204 123 187 280 101 205 215 160 137 143 347 324 51 50 11 120 18 340 308 358 5 17 61 97 112 127 139 145 146 137 143 150 154 161
321 323 328 249 242 168 139 148 161 163 119 96 110 230 210 265 232 273 314 330 310 312 326 7 303 134 170 217 220 190 210 150 157 145 235 179 214 211 199 226 191 193 190 162 235 184 162 248 280 331 299 279 228 189 181 177 144 102 195 241 260 100 117 137 213 333 49 181 204 151 154 217 120 247 323 41 71 149 130 147 151 150 146 143 151 154 157 163
320 291 255 261 241 171 134 146 147 133 99 95 196 232 265 279 312 331 312 303 311 324 309 306 267 74 23 42 298 310 214 144 214 161 218 178 245 198 209 215 201 197 197 181 176 236 174 271 283 235 210 252 201 106 160 242 169 178 207 179 99 253 320 317 99 203 290 259 177 337 37 191 201 223 136 188 188 177 159 149 145 151 152 145 152 155 159 150
264 326 327 289 130 141 136 146 136 122 93 88 228 319 246 218 243 250 264 288 269 284 281 231 231 307 349 44 3 287 167 161 203 205 132 222 214 208 199 195 211 202 193 171 183 221 109 187 289 316 323 243 77 133 193 232 285 296 43 7 241 120 167 249 214 185 122 212 93 225 174 212 217 217 184 189 188 170 158 158 163 165 152 146 152 153 154 154
344 342 292 308 109 132 139 137 101 96 77 183 218 232 295 301 286 277 274 281 295 296 261 281 272 307 331 203 38 328 275 60 188 285 142 199 197 239 206 203 192 197 194 170 198 165 227 137 252 266 329 62 142 185 192 184 198 236 257 197 189 209 202 151 217 152 166 168 164 153 246 274 259 207 185 184 178 174 166 166 165 165 149 149 152 153 158 159
295 178 270 20 79 137 132 100 94 141 182 262 246 280 298 286 312 294 287 284 275 220 232 265 275 266 195 335 328 181 66 271 145 183 205 258 205 274 234 219 195 195 180 179 200 145 118 159 219 290 344 317 230 256 186 183 185 187 181 197 179 172 207 215 270 337 98 99 175 135 223 276 270 172 192 166 176 169 171 158 156 156 150 155 155 156 159 161
354 2 225 317 12 180 131 133 236 168 191 226 233 210 266 263 265 275 295 298 272 291 258 282 286 273 266 233 203 164 159 190 202 182 336 105 279 233 318 289 247 164 165 177 201 194 171 169 168 230 209 229 247 260 202 196 181 194 166 218 173 150 109 113 194 272 345 13 102 110 117 266 250 182 139 168 169 167 158 151 151 154 156 158 159 160 164 163
357 261 280 304 295 171 298 338 96 220 234 230 248 257 252 263 262 269 289 300 314 332 322 331 327 322 268 243 261 145 110 178 65 208 229 6 282 323 272 356 313 235 165 201 198 212 144 102 144 280 300 301 305 298 269 226 182 116 253 169 112 171 186 183 177 192 152 140 64 32 74 254 290 229 140 138 140 138 151 159 153 156 154 159 158 160 161 164
302 285 312 299 326 179 113 207 226 238 245 266 247 262 255 272 282 294 299 338 333 343 345 316 325 327 304 285 253 259 173 280 74 71 4 318 311 303 318 354 23 344 182 194 187 177 187 263 127 301 2 343 341 346 358 44 195 194 195 215 180 199 172 207 142 89 330 228 155 135 186 262 279 44 94 119 125 143 159 163 154 154 160 161 160 161 163 165
285 246 231 297 308 122 184 191 215 248 248 264 274 283 313 276 249 265 321 327 359 15 338 346 324 322 296 291 274 118 322 146 241 327 142 38 308 304 355 360 328 24 290 197 182 166 164 177 115 163 190 235 275 307 262 233 220 253 243 176 202 210 176 92 242 218 219 274 124 138 196 254 263 79 112 127 134 147 159 162 168 162 164 166 165 165 164 164
346 4 296 302 354 340 317 315 157 273 272 305 315 272 254 280 289 313 6 53 38 4 49 321 349 347 17 350 351 19 30 34 84 293 36 355 339 302 8 337 14 350 359 268 156 144 151 149 129 154 166 187 213 209 239 166 38 22 302 295 251 211 209 175 105 99 211 225 147 216 161 177 168 172 152 156 148 158 174 176 168 167 174 174 168 165 168 169
313 23 339 335 320 19 348 345 16 11 334 299 304 289 296 312 307 304 33 339 26 19 353 69 25 22 348 12 350 319 316 96 19 67 350 38 296 278 317 359 341 9 11 4 17 96 87 30 243 147 191 210 196 205 210 97 257 268 288 280 263 234 170 154 186 225 189 123 271 267 169 152 194 172 177 170 172 173 183 180 175 173 176 178 175 171 166 167
12 299 22 22 209 291 6 337 356 331 315 323 265 248 262 329 353 16 24 42 10 32 8 326 28 18 37 8 306 343 339 23 39 20 329 21 353 328 3 332 39 353 25 349 8 90 116 123 280 129 266 253 202 221 226 194 218 214 236 276 289 267 176 178 206 214 138 176 208 209 179 170 187 184 184 179 175 181 184 185 180 175 167 175 178 174 172 168
285 326 327 3 9 319 287 273 306 310 304 295 249 266 275 344 45 40 66 321 38 18 19 315 346 338 344 4 29 1 345 39 348 336 21 330 12 353 6 335 335 2 23 352 8 189 93 17 306 249 256 325 299 251 236 215 252 276 255 241 256 274 257 217 218 195 182 201 176 164 188 182 175 185 184 188 184 178 180 162 162 163 169 173 181 185 178 169
37 350 333 354 291 296 283 301 318 322 315 315 315 286 298 33 75 327 29 62 39 10 352 73 322 334 339 12 39 62 330 349 0 4 345 356 343 24 337 182 277 323 22 1 324 335 94 332 342 349 31 327 329 357 350 238 219 275 282 268 265 249 251 231 213 239 84 45 141 157 155 178 259 182 174 124 111 127 127 168 178 179 166 172 180 183 183 178
298 309 324 320 328 284 298 320 343 324 336 343 11 309 29 344 137 260 88 22 114 111 0 331 291 311 7 2 1 354 10 356 339 318 319 330 336 275 72 283 269 326 3 0 342 342 56 305 58 52 33 314 355 357 334 11 30 290 284 291 289 279 287 227 231 229 130 162 140 133 128 200 219 139 109 133 157 169 180 182 181 178 177 173 180 183 183 167
295 248 278 221 280 309 324 314 303 336 16 342 343 328 325 267 265 295 85 72 95 108 184 259 289 23 349 10 346 359 336 325 315 307 302 305 275 273 232 247 260 80 15 336 271 61 89 97 47 17 41 284 308 318 360 43 39 12 336 297 271 259 234 288 320 21 136 148 140 160 203 184 163 151 146 173 171 183 183 187 183 185 180 176 178 174 165 147